Regional Weather Roundup
Issued by NWS

Home | Current Version | Previous Version | Graphics & Text | Print | Product List | Glossary On
Versions: 1 2 3 4 5 6 7 8 9 10 11 12 13 14 15 16 17 18 19 20 21 22 23 24 25 26 27 28 29 30 31 32 33 34 35 36 37 38 39 40 41 42 43 44 45 46 47 48 49 50
173
ASUS45 KBOU 051007
RWRCO

WEATHER ROUNDUP FOR COLORADO
NATIONAL WEATHER SERVICE DENVER/BOULDER CO
300 AM MST FRI FEB 05 2016

NOTE: "FAIR" INDICATES FEW OR NO CLOUDS BELOW 12000 FEET WITH NO
SIGNIFICANT WEATHER AND/OR OBSTRUCTIONS TO VISIBILITY.

COZ001>005-013-030-031-051100-
...NORTHWEST COLORADO...

CITY           SKY/WX    TMP DP  RH WIND       PRES   REMARKS
CRAIG          LGT SNOW  14  11  87 SW3       30.34S FOG
HAYDEN         CLOUDY    12   9  85 CALM      30.32R
MEEKER         CLOUDY    14  10  84 CALM      30.35R
MOUNT WERNER   NOT AVBL
STEAMBOAT SPGS CLOUDY     9   7  90 CALM      30.30S
WALDEN         CLOUDY    10   5  79 E7        30.23R WCI   0
$$

COZ006>008-011-051100-
...WEST CENTRAL VALLEYS...

CITY           SKY/WX    TMP DP  RH WIND       PRES   REMARKS
GRAND JUNCTION CLOUDY    14  13  95 E3        30.47R FOG
MONTROSE       CLOUDY    11   7  84 CALM      30.44R
EAGLE          CLOUDY     3   3 100 CALM      30.36R
RIFLE          LGT SNOW  16  13  88 CALM      30.42R FOG
DELTA          FLURRIES  16  13  87 N3        30.46R
NUCLA          CLOUDY    14  10  85 CALM      30.44R
$$

COZ017>023-064>068-051100-
...SOUTHWEST COLORADO...

CITY           SKY/WX    TMP DP  RH WIND       PRES   REMARKS
DURANGO        CLOUDY    -4  -7  87 E5        30.27S WCI -15
CORTEZ         CLOUDY     6   2  83 NE7       30.35S WCI  -6
PAGOSA SPRINGS CLOUDY    -1  -5  84 CALM      30.24S
TELLURIDE      CLOUDY    12   7  80 W5        30.25R WCI   5
WOLF CREEK PAS CLOUDY     1  -2  85 NE17G23   30.11S WCI -19
$$

COZ009-010-012-014-032>034-037-058>063-051100-
...CENTRAL COLORADO...

CITY           SKY/WX    TMP DP  RH WIND       PRES   REMARKS
ASPEN          LGT SNOW  10   6  84 NW3       30.27R FOG
BUENA VISTA    CLOUDY    10   1  64 W12       30.19S WCI  -4
COPPER MTN     CLOUDY     5  -4  66 NW12      30.08R WCI -11
BERTHOUD PASS  CLOUDY    -4 -13  65 N28       30.04R WCI -30
COTTONWOOD PAS CLOUDY    12   3  67 NW9G18    30.12S WCI   0
GUNNISON       CLOUDY    -8 -15  71 CALM      30.33R
KREMMLING      LGT SNOW   3  -2  78 CALM      30.31R
LEADVILLE      LGT SNOW   6   1  80 NW9       30.14R WCI  -8
MONARCH PASS   CLOUDY     0  -6  78 MISG      30.17S
SALIDA         CLOUDY    15   3  59 W9        30.27S WCI   3
SUNLIGHT       LGT SNOW N/A N/A N/A W8          N/A
WILKERSON PASS CLOUDY     5  -2  72 N10G20    30.07S WCI -10
$$

COZ069>075-051100-
...SAN LUIS VALLEY/SANGRE DE CRISTO MOUNTAINS...

CITY           SKY/WX    TMP DP  RH WIND       PRES   REMARKS
ALAMOSA        CLOUDY    -5 -11  75 W3        30.20F
LA VETA PASS   LGT SNOW   5   1  85 MISG      30.07S
SAGUACHE       CLOUDY    14   5  67 N12       30.20R WCI   0
$$

COZ035-036-038>040-051100-
...NORTHERN COLORADO FRONT RANGE...

CITY           SKY/WX    TMP DP  RH WIND       PRES   REMARKS
DENVER INTL AP CLOUDY    20  15  81 S12       30.18S WCI   8
DMNS CITY PARK   N/A     24  14  66 SW2       30.19S
AURORA         CLOUDY    23  14  69 S2        30.18S
FRONT RANGE AP   N/A     23  19  86 S6        30.18S WCI  16
ERIE MUNI ARPT CLOUDY    20  13  75 CALM      30.20R
BOULDER MUN AP CLOUDY    27  10  50 CALM      30.18S
CENTENNIAL     CLOUDY    25  11  55 W5        30.17R WCI  19
BROOMFIELD     CLOUDY    30  10  43 W17       30.18R WCI  18
FORT COLLINS   CLOUDY    21  12  68 CALM      30.21S
LONGMONT       CLOUDY    22  14  72 CALM      30.23R
$$

COZ041-046-047-076>085-087-088-051100-
...PIKES PEAK/PALMER DIVIDE AND SOUTHERN FOOTHILLS...

CITY           SKY/WX    TMP DP  RH WIND       PRES   REMARKS
COLO. SPRINGS  CLOUDY    22  19  89 NW6       30.17S WCI  14
A. F. ACADEMY  CLOUDY    20  16  84 NE5       30.14F WCI  14
SCHRIEVER AFB  CLOUDY    22  17  81 NW3       30.17S
ELLICOTT       NOT AVBL
FALCON         CLOUDY    21  13  71 NW3       30.15S
FORT CARSON    MOCLDY    22  21  95 SW2       30.16F
LIMON          LGT SNOW  20  19  96 N5        30.20S FOG     WCI  13
MONUMENT HILL  CLOUDY    18  12  79 NW8       30.15S WCI   7
TRINIDAD       CLOUDY    23  15  71 N17G24    30.16R WCI   9
$$

COZ042>045-048>051-090-091-051100-
...NORTHEAST COLORADO...

CITY           SKY/WX    TMP DP  RH WIND       PRES   REMARKS
GREELEY ARPT   CLOUDY    19  14  79 CALM      30.23R
AKRON          LGT SNOW  22  21  96 W9        30.19S FOG     WCI  12
BURLINGTON     CLOUDY    25  19  78 NW9       30.21F WCI  15
WRAY           CLOUDY    28  27  94 W10       30.24S WCI  19
STERLING       CLOUDY    25  21  86 S6        30.21S WCI  18
HOLYOKE        LGT SNOW  30  27  86 W13       30.21S WCI  20
FORT MORGAN    CLOUDY    23  15  73 W5        30.21F WCI  17
$$

COZ086-089-092>099-051100-
...SOUTHEAST COLORADO...

CITY           SKY/WX    TMP DP  RH WIND       PRES   REMARKS
PUEBLO         CLOUDY    27  23  85 W6        30.22S WCI  20
LA JUNTA       LGT SNOW  29  20  69 N10G22    30.20R WCI  20
LAMAR          CLOUDY    28  16  60 NE9       30.19F WCI  19
SPRINGFIELD      N/A     23  16  74 NW17      30.12S WCI   9
$$




USA.gov is the U.S. government's official web portal to all federal, state and local government web resources and services.